星链-32705 (STARLINK-32705)

导读

STARLINK-32705是美国太空探索技术公司(SpaceX)星链(Starlink)星座的一员,于2024年12月31日发射入轨。星链项目旨在构建全球覆盖的低轨卫星互联网,为地面网络覆盖不足区域提供高速宽带服务,已拓展至航空、海事及应急通信等场景。作为第二代星座部署阶段的卫星,它进一步扩充了星链网络规模,助力全球卫星互联网服务覆盖与性能提升。

Basic Information
目录编号:
62479
目录名称:
STARLINK-32705
国际标识:
2024-254T
轨道中心:
EARTH
卫星名称:
星链-32705
卫星全名:
星链-32705 (STARLINK-32705)
卫星状态:
在轨 (已飞行612 天)
发射日期:
2024-12-31 UTC
国别 :
美国 (US)
星等 :
--
Orbit Information
数据来源 国际轨道数据
星历时间: 2026-09-04T05:18:26+0800
20小时前
查看轨道信息
半长轴: 6861.161km
偏心率: 0.0001165
轨道倾角: 43.000°
近地点辐角 272.129°
升交点赤经 82.421°
平近点角 87.943°
近地点: 482.224km
远地点: 483.824km
周期: 94.266分钟
每日圈数: 15.275887
Detailed Information
固有亮度:
5
最大亮度:
2.5
卫星平台:
Starlink V1.0
覆盖范围:
全球
运营商:
太空探索技术公司
运营商所在国:
美国
制造商(研发单位):
太空探索技术公司
制造商所在国:
美国
使用方式:
暂无
Satellite Introduction
Starlink 计划是 SpaceX 推出的全球卫星互联网项目,通过发射低轨道卫星,为全球尤其是偏远地区提供高速、低延迟的互联网服务。自 2019 年起,Starlink 已部署数千颗卫星,旨在缩小全球数字鸿沟,推动互联网普及。该项目还为军事、航空等行业提供通信支持,带来广泛经济效益。
2D Orbit Map
3D Orbit Map
Orbit Altitude Analysis Chart
Orbit Inclination Analysis Chart
Orbit Comprehensive Analysis Chart
View Comprehensive Chart
Conjunction Data List
Event ID Objects TCA Miss Dist (km) Collision Risk Probability Collision Risk Index (CRI) Action
CDM_260906-210405-561806-247921
2026-09-06T
21:04:32+0000
0.606 km
远距离
2.955302E-5 中风险 0.64
CDM_260906-222905-669706-247921
2026-09-06T
22:29:35+0000
1.043 km
极远距离
1.499282E-5 中风险 0.59
CDM_260906-205505-669706-247921
2026-09-06T
20:55:26+0000
1.104 km
极远距离
1.232399E-5 中风险 0.57
CDM_260905-114205-306606-247921
2026-09-05T
11:42:02+0000
2.000 km
极远距离
1.800171E-6 低风险 0.4
CDM_260906-215105-561806-247921
2026-09-06T
21:51:36+0000
1.477 km
极远距离
1.595123E-6 低风险 0.39
CDM_260905-092005-306606-247921
2026-09-05T
09:20:38+0000
2.171 km
极远距离
1.492543E-6 低风险 0.38
CDM_260906-192105-669706-247921
2026-09-06T
19:21:17+0000
2.813 km
极远距离
1.01243E-6 低风险 0.35
CDM_260906-193005-561806-247921
2026-09-06T
19:30:22+0000
2.467 km
极远距离
5.010438E-7 极低风险 0.29
CDM_260906-223805-561806-247921
2026-09-06T
22:38:41+0000
2.657 km
极远距离
4.521322E-7 极低风险 0.28